Flag for U.S.A. Weather past 2 weeks in Tucson, Arizona, U.S.A.

Now
64 °F

Passing clouds.


Feels Like: 64 °F
Forecast: 50 / 69 °F
Wind: 13 mph from Southeast

Location: Davis-Monthan Air Force Base

Current Time: Jan 26, 2015 at 12:21:14 PM

Latest Report: Jan 26, 2015 at 12:02 PM


Visibility: 10 mi

Pressure: 30.19 "Hg

Humidity: 28%

Dew point: 30 °F

Location of TucsonLocation

Historic Weather in Tucson — Graph

°F

Tucson temperature yesterday

Maximum temperature yesterday: 72 °F (at 3:58 PM)
Minimum temperature yesterday: 51 °F (at 4:58 AM)
Average temperature yesterday: 59 °F

Past Weeks' High & Low Weather Summary

 TemperatureHumidityPressure
High75 °F (Jan 19, 2:58 PM)100% (Jan 12, 8:58 AM)30.29 "Hg (Jan 12, 8:58 AM)
Low37 °F (Jan 22, 7:58 AM)8% (Jan 25, 2:58 PM)29.78 "Hg (Jan 21, 1:58 PM)
Average54 °F47%30.07 "Hg
* Reported Jan 11 10:58 AM — Jan 26 10:58 AM, Tucson, Weather by CustomWeather, © 2014

Note: Actual official high and low records may vary slightly from our data, if they occured in-between our weather recording intervals... More about our weather records

Advertising

Tucson weather history for previous 24 hours

 ConditionsComfort  
Time TempWeatherWind HumidityBarometerVisibility
10:58 AM
Jan 26
63 °FScattered clouds.14 mph26%30.13 "Hg10 mi
9:58 AM62 °FBroken clouds.12 mph26%30.12 "Hg10 mi
8:58 AM60 °FScattered clouds.13 mph26%30.10 "Hg10 mi
7:58 AM58 °FSunny.13 mph27%30.07 "Hg10 mi
6:58 AM58 °FPassing clouds.14 mph26%30.06 "Hg10 mi
5:58 AM58 °FClear.14 mph25%30.04 "Hg10 mi
4:58 AM58 °FClear.12 mph26%30.03 "Hg10 mi
3:58 AM59 °FClear.14 mph24%30.02 "Hg10 mi
2:58 AM59 °FClear.10 mph25%30.04 "Hg10 mi
1:58 AM58 °FPassing clouds.10 mph24%30.05 "Hg10 mi
12:58 AM58 °FClear.9 mph25%30.06 "Hg10 mi
11:58 PM
Jan 25
57 °FClear.14 mph25%30.08 "Hg10 mi
10:58 PM56 °FClear.10 mph26%30.07 "Hg10 mi
9:58 PM57 °FClear.2 mph25%30.06 "Hg10 mi
8:58 PM56 °FClear.No wind24%30.06 "Hg10 mi
7:58 PM61 °FClear.8 mph19%30.04 "Hg10 mi
6:58 PM61 °FClear.6 mph21%30.03 "Hg10 mi
5:58 PM65 °FClear.No wind18%30.01 "Hg10 mi
4:58 PM69 °FSunny.7 mph13%29.99 "Hg10 mi
3:58 PM72 °FSunny.2 mph9%29.97 "Hg10 mi
2:58 PM71 °FSunny.6 mph8%29.98 "Hg10 mi
1:58 PM69 °FSunny.2 mph9%29.99 "Hg10 mi
12:58 PM69 °FSunny.10 mph9%30.01 "Hg10 mi
Weather by CustomWeather, © 2014

See weather overviewHow to use our weather pages